Showing default

COSMOS 1670, 15930

Orbit data source: Space-Track

COSMOS 1670, 15930 is a payload satellite owned by VMF (CIS) in LEO that was launched on Thu, 01 Aug 1985 UTC via a TSIKLON-2 launch vehicle from the Tyuratam Missile And Space Complex (TTMTR). Payload-class satellites include a variety of spacecraft equipped with specific instruments for various scientific and technological missions. These include communications satellites like Starlink; space stations such as the ISS; scientific satellites like the Hubble; Earth observation satellites from companies like Planet Labs, Umbra, and HawkEye 360; GPS; miniature CubeSats for education and research; and military/defense satellites.

Loading next visibility...
Identifier
15930, 1985-064A
Orbit
LEO
Country
Flag of CISCIS
Related business
Manufacturer
Kometa
Mission
Spacecraft
Bus & Motor
US-A REACTOR, Unknown motor
Mass
4,300 kg wet, 1,154 kg dry
Launch date (UTC)
1985-08-01 (41 years ago)
Launch vehicle
TSIKLON-2
Launch site
Tyuratam Missile And Space Complex (TTMTR)
Object type
Payload
Rocket body
Debris
Shape & HBR
Unknown
Radar Cross Section
Large (>1 m²)

Expand to show TLE details & history
Last TLE update: 2 days ago

TLE from 2 days ago
0 COSMOS 1670
1 15930U 85064A   26171.27382021 -.00000060  00000-0  25500-4 0  9996
2 15930  64.9387 131.9416 0053543  36.2299 324.2368 13.83880123 54186
Epoch: 2026-06-20T06:34Z
TLE epoch observation values (Epoch: 2026-06-20T06:34:18.066Z)
Latitude
0.00003°
Longitude
124.87554°
Altitude
920.31 km
Speed
7.408 km/s
True Right ascension
08h 47m 45s
True Declination
0° 00' 00"
Sunlit
Object was in daylight at epoch
Visualization orbit readout
Latitude
Unknown
Longitude
Unknown
Altitude
Unknown
Speed
Unknown
Apparent Right ascension
Unknown
Apparent Declination
Unknown
Sunlit
N/A
Visualization observer readout
Local Sidereal Time
00:50:06
Azimuth
Unknown
Elevation
Unknown
Doppler factor
Unknown
Orbital elements
Apogee altitude
988.004 km
Perigee altitude
909.543 km
Semi-major axis
7,326.911 km
Eccentricity
0.00535
Inclination
64.9387°
RAAN
131.9416°
Arg. of periapsis
36.2299°
True anomaly
323.87626°
Mean anomaly
324.2368°
Eccentric anomaly
324.05673°
Mean motion
3.46068 °/min
Orbital period
104.03 mins
BSTAR
0.0000255
Loading maneuver chart data...
Computing Atmospheric mass density...
Loading historical data...
Loading historical data...
Loading historical data...
Loading historical data...
Loading historical data...
Loading historical data...
Loading historical data...

Documentation

Showing up to 5 results
|